Time,TemperatureF,DewpointF,PressureIn,WindDirection,WindDirectionDegrees,WindSpeedMPH,WindSpeedGustMPH,Humidity,HourlyPrecipIn,Conditions,Clouds,dailyrainin,SoftwareType,DateUTC
2013-01-18 00:00:00,19.5,10.6,30.26,East,83,0.0,5.0,68,0.00,,,0.00,Wunderground v.1.15,2013-01-18 05:00:00,
2013-01-18 00:01:00,19.5,10.6,30.26,East,83,0.0,1.0,68,0.00,,,0.00,Wunderground v.1.15,2013-01-18 05:01:00,
2013-01-18 00:02:00,19.4,10.6,30.26,East,80,1.0,1.0,68,0.00,,,0.00,Wunderground v.1.15,2013-01-18 05:02:00,
2013-01-18 00:08:00,19.4,10.6,30.26,ENE,57,0.0,4.0,68,0.00,,,0.00,Wunderground v.1.15,2013-01-18 05:08:00,
2013-01-18 00:14:00,19.4,10.9,30.26,NE,56,0.0,1.0,69,0.00,,,0.00,Wunderground v.1.15,2013-01-18 05:14:00,
2013-01-18 00:19:00,19.4,10.9,30.26,ENE,77,0.0,1.0,69,0.00,,,0.00,Wunderground v.1.15,2013-01-18 05:19:00,
2013-01-18 00:25:00,19.3,10.8,30.27,NNE,24,4.0,4.0,69,0.00,,,0.00,Wunderground v.1.15,2013-01-18 05:25:00,
2013-01-18 00:30:00,19.3,10.8,30.27,ENE,63,4.0,4.0,69,0.00,,,0.00,Wunderground v.1.15,2013-01-18 05:30:00,
2013-01-18 00:36:00,19.3,10.8,30.27,North,355,0.0,4.0,69,0.00,,,0.00,Wunderground v.1.15,2013-01-18 05:36:00,
2013-01-18 00:41:00,19.2,11.0,30.27,ENE,61,2.0,4.0,70,0.00,,,0.00,Wunderground v.1.15,2013-01-18 05:41:00,
2013-01-18 00:47:00,19.2,11.0,30.27,ENE,57,4.0,4.0,70,0.00,,,0.00,Wunderground v.1.15,2013-01-18 05:47:00,
2013-01-18 00:52:00,19.1,10.9,30.28,ENE,57,0.0,1.0,70,0.00,,,0.00,Wunderground v.1.15,2013-01-18 05:52:00,
2013-01-18 00:58:00,19.1,11.2,30.28,NE,55,0.0,1.0,71,0.00,,,0.00,Wunderground v.1.15,2013-01-18 05:58:00,
2013-01-18 01:03:00,19.1,11.2,30.28,NE,56,0.0,1.0,71,0.00,,,0.00,Wunderground v.1.15,2013-01-18 06:03:00,
2013-01-18 01:09:00,19.1,11.2,30.29,ENE,57,0.0,1.0,71,0.00,,,0.00,Wunderground v.1.15,2013-01-18 06:09:00,
2013-01-18 01:14:00,19.0,11.1,30.29,ENE,57,0.0,1.0,71,0.00,,,0.00,Wunderground v.1.15,2013-01-18 06:14:00,
2013-01-18 01:20:00,19.0,11.1,30.29,ENE,57,1.0,1.0,71,0.00,,,0.00,Wunderground v.1.15,2013-01-18 06:20:00,
2013-01-18 01:26:00,19.0,11.5,30.30,ENE,69,0.0,1.0,72,0.00,,,0.00,Wunderground v.1.15,2013-01-18 06:26:00,
2013-01-18 01:31:00,19.1,11.6,30.30,ENE,69,1.0,1.0,72,0.00,,,0.00,Wunderground v.1.15,2013-01-18 06:31:00,
2013-01-18 01:37:00,19.0,11.5,30.30,ENE,72,2.0,2.0,72,0.00,,,0.00,Wunderground v.1.15,2013-01-18 06:37:00,
2013-01-18 01:42:00,19.0,11.5,30.30,ENE,72,1.0,1.0,72,0.00,,,0.00,Wunderground v.1.15,2013-01-18 06:42:00,
2013-01-18 01:48:00,19.0,11.5,30.30,ENE,72,0.0,1.0,72,0.00,,,0.00,Wunderground v.1.15,2013-01-18 06:48:00,
2013-01-18 01:54:00,19.0,11.8,30.31,ENE,72,0.0,2.0,73,0.00,,,0.00,Wunderground v.1.15,2013-01-18 06:54:00,
2013-01-18 02:00:00,18.9,11.7,30.31,ENE,72,0.0,0.0,73,0.00,,,0.00,Wunderground v.1.15,2013-01-18 07:00:00,
2013-01-18 02:05:00,18.8,11.6,30.31,ENE,72,0.0,1.0,73,0.00,,,0.00,Wunderground v.1.15,2013-01-18 07:05:00,
2013-01-18 02:10:00,18.7,11.5,30.32,ENE,66,0.0,0.0,73,0.00,,,0.00,Wunderground v.1.15,2013-01-18 07:10:00,
2013-01-18 02:15:00,18.6,11.7,30.32,ENE,66,0.0,2.0,74,0.00,,,0.00,Wunderground v.1.15,2013-01-18 07:15:00,
2013-01-18 02:20:00,18.5,11.6,30.32,ENE,64,1.0,3.0,74,0.00,,,0.00,Wunderground v.1.15,2013-01-18 07:20:00,
2013-01-18 02:25:00,18.5,11.3,30.32,ENE,65,0.0,4.0,73,0.00,,,0.00,Wunderground v.1.15,2013-01-18 07:25:00,
2013-01-18 02:30:00,18.5,11.3,30.32,NNE,18,0.0,1.0,73,0.00,,,0.00,Wunderground v.1.15,2013-01-18 07:30:00,
2013-01-18 02:35:00,18.5,11.3,30.32,NNE,21,0.0,4.0,73,0.00,,,0.00,Wunderground v.1.15,2013-01-18 07:35:00,
2013-01-18 02:40:00,18.4,11.2,30.33,NE,35,0.0,0.0,73,0.00,,,0.00,Wunderground v.1.15,2013-01-18 07:40:00,
2013-01-18 02:45:00,18.3,11.1,30.33,NNE,33,0.0,5.0,73,0.00,,,0.00,Wunderground v.1.15,2013-01-18 07:45:00,
2013-01-18 02:50:00,18.2,11.0,30.33,North,355,0.0,1.0,73,0.00,,,0.00,Wunderground v.1.15,2013-01-18 07:50:00,
2013-01-18 02:55:00,18.2,10.7,30.34,NNE,14,0.0,4.0,72,0.00,,,0.00,Wunderground v.1.15,2013-01-18 07:55:00,
2013-01-18 03:00:00,18.2,10.7,30.34,NNE,24,0.0,0.0,72,0.00,,,0.00,Wunderground v.1.15,2013-01-18 08:00:00,
2013-01-18 03:05:00,18.1,10.6,30.34,ENE,77,0.0,4.0,72,0.00,,,0.00,Wunderground v.1.15,2013-01-18 08:05:00,
2013-01-18 03:10:00,18.1,10.0,30.35,NNE,32,1.0,2.0,70,0.00,,,0.00,Wunderground v.1.15,2013-01-18 08:10:00,
2013-01-18 03:15:00,18.0,9.5,30.35,NNW,348,1.0,5.0,69,0.00,,,0.00,Wunderground v.1.15,2013-01-18 08:15:00,
2013-01-18 03:20:00,18.0,9.5,30.35,North,360,0.0,1.0,69,0.00,,,0.00,Wunderground v.1.15,2013-01-18 08:20:00,
2013-01-18 03:25:00,18.0,9.5,30.36,NNE,12,0.0,2.0,69,0.00,,,0.00,Wunderground v.1.15,2013-01-18 08:25:00,
2013-01-18 03:30:00,17.9,9.4,30.36,NE,40,0.0,0.0,69,0.00,,,0.00,Wunderground v.1.15,2013-01-18 08:30:00,
2013-01-18 03:35:00,17.9,9.1,30.36,NNE,22,2.0,4.0,68,0.00,,,0.00,Wunderground v.1.15,2013-01-18 08:35:00,
2013-01-18 03:40:00,17.9,9.1,30.36,NNE,20,0.0,1.0,68,0.00,,,0.00,Wunderground v.1.15,2013-01-18 08:40:00,
2013-01-18 03:45:00,17.9,9.1,30.36,NNE,20,0.0,3.0,68,0.00,,,0.00,Wunderground v.1.15,2013-01-18 08:45:00,
2013-01-18 03:50:00,17.9,9.1,30.36,NNE,20,0.0,0.0,68,0.00,,,0.00,Wunderground v.1.15,2013-01-18 08:50:00,
2013-01-18 03:55:00,17.9,9.1,30.35,NNE,19,0.0,1.0,68,0.00,,,0.00,Wunderground v.1.15,2013-01-18 08:55:00,
2013-01-18 04:00:00,17.8,9.0,30.35,NNE,20,0.0,0.0,68,0.00,,,0.00,Wunderground v.1.15,2013-01-18 09:00:00,
2013-01-18 04:05:00,17.7,9.2,30.35,NNE,19,0.0,0.0,69,0.00,,,0.00,Wunderground v.1.15,2013-01-18 09:05:00,
2013-01-18 04:10:00,17.6,9.2,30.35,NNE,20,1.0,2.0,69,0.00,,,0.00,Wunderground v.1.15,2013-01-18 09:10:00,
2013-01-18 04:16:00,17.6,9.2,30.35,NNE,20,1.0,2.0,69,0.00,,,0.00,Wunderground v.1.15,2013-01-18 09:16:00,
2013-01-18 04:21:00,17.6,8.8,30.35,NNE,19,0.0,2.0,68,0.00,,,0.00,Wunderground v.1.15,2013-01-18 09:21:00,
2013-01-18 04:26:00,17.6,8.8,30.36,NNE,20,0.0,3.0,68,0.00,,,0.00,Wunderground v.1.15,2013-01-18 09:26:00,
2013-01-18 04:31:00,17.5,8.7,30.36,NNE,20,0.0,0.0,68,0.00,,,0.00,Wunderground v.1.15,2013-01-18 09:31:00,
2013-01-18 04:36:00,17.4,8.6,30.36,NNE,19,0.0,1.0,68,0.00,,,0.00,Wunderground v.1.15,2013-01-18 09:36:00,
2013-01-18 04:41:00,17.3,8.5,30.35,NNE,20,0.0,1.0,68,0.00,,,0.00,Wunderground v.1.15,2013-01-18 09:41:00,
2013-01-18 04:46:00,17.2,8.4,30.35,NNW,344,0.0,4.0,68,0.00,,,0.00,Wunderground v.1.15,2013-01-18 09:46:00,
2013-01-18 04:51:00,17.1,8.3,30.35,NNW,344,0.0,2.0,68,0.00,,,0.00,Wunderground v.1.15,2013-01-18 09:51:00,
2013-01-18 04:56:00,17.0,8.3,30.35,NNW,344,1.0,4.0,68,0.00,,,0.00,Wunderground v.1.15,2013-01-18 09:56:00,
2013-01-18 05:01:00,17.0,8.3,30.35,NNW,343,1.0,2.0,68,0.00,,,0.00,Wunderground v.1.15,2013-01-18 10:01:00,
2013-01-18 05:06:00,16.9,8.2,30.35,NNW,342,0.0,2.0,68,0.00,,,0.00,Wunderground v.1.15,2013-01-18 10:06:00,
2013-01-18 05:11:00,16.9,8.2,30.36,NNW,342,0.0,1.0,68,0.00,,,0.00,Wunderground v.1.15,2013-01-18 10:11:00,
2013-01-18 05:16:00,16.8,8.1,30.36,NNW,342,0.0,1.0,68,0.00,,,0.00,Wunderground v.1.15,2013-01-18 10:16:00,
2013-01-18 05:21:00,16.7,8.0,30.36,NNW,342,0.0,1.0,68,0.00,,,0.00,Wunderground v.1.15,2013-01-18 10:21:00,
2013-01-18 05:26:00,16.6,7.9,30.36,NNW,342,0.0,1.0,68,0.00,,,0.00,Wunderground v.1.15,2013-01-18 10:26:00,
2013-01-18 05:31:00,16.4,7.7,30.36,NNW,342,0.0,0.0,68,0.00,,,0.00,Wunderground v.1.15,2013-01-18 10:31:00,
2013-01-18 05:36:00,16.4,7.7,30.36,NNW,342,0.0,1.0,68,0.00,,,0.00,Wunderground v.1.15,2013-01-18 10:36:00,
2013-01-18 05:41:00,16.3,7.6,30.37,NNW,342,1.0,1.0,68,0.00,,,0.00,Wunderground v.1.15,2013-01-18 10:41:00,
2013-01-18 05:46:00,16.3,7.9,30.37,NNW,342,0.0,2.0,69,0.00,,,0.00,Wunderground v.1.15,2013-01-18 10:46:00,
2013-01-18 05:51:00,16.2,7.8,30.37,NNW,342,0.0,1.0,69,0.00,,,0.00,Wunderground v.1.15,2013-01-18 10:51:00,
2013-01-18 05:56:00,16.2,8.1,30.38,NNW,342,1.0,2.0,70,0.00,,,0.00,Wunderground v.1.15,2013-01-18 10:56:00,
2013-01-18 06:01:00,16.2,8.1,30.38,NNW,342,0.0,1.0,70,0.00,,,0.00,Wunderground v.1.15,2013-01-18 11:01:00,
2013-01-18 06:06:00,16.2,8.4,30.38,NNW,342,0.0,1.0,71,0.00,,,0.00,Wunderground v.1.15,2013-01-18 11:06:00,
2013-01-18 06:11:00,16.3,8.5,30.37,NNW,342,0.0,0.0,71,0.00,,,0.00,Wunderground v.1.15,2013-01-18 11:11:00,
2013-01-18 06:16:00,16.2,8.4,30.37,NNW,342,0.0,0.0,71,0.00,,,0.00,Wunderground v.1.15,2013-01-18 11:16:00,
2013-01-18 06:21:00,16.2,8.8,30.37,NNW,342,0.0,0.0,72,0.00,,,0.00,Wunderground v.1.15,2013-01-18 11:21:00,
2013-01-18 06:26:00,16.3,8.9,30.38,NNW,342,0.0,0.0,72,0.00,,,0.00,Wunderground v.1.15,2013-01-18 11:26:00,
2013-01-18 06:31:00,16.3,8.9,30.38,NNW,342,0.0,1.0,72,0.00,,,0.00,Wunderground v.1.15,2013-01-18 11:31:00,
2013-01-18 06:36:00,16.4,8.9,30.38,NNW,342,0.0,1.0,72,0.00,,,0.00,Wunderground v.1.15,2013-01-18 11:36:00,
2013-01-18 06:41:00,16.4,8.6,30.38,NNW,342,0.0,0.0,71,0.00,,,0.00,Wunderground v.1.15,2013-01-18 11:41:00,
2013-01-18 06:46:00,16.5,8.7,30.38,NNW,342,0.0,0.0,71,0.00,,,0.00,Wunderground v.1.15,2013-01-18 11:46:00,
2013-01-18 06:51:00,16.5,8.7,30.38,NNW,342,0.0,0.0,71,0.00,,,0.00,Wunderground v.1.15,2013-01-18 11:51:00,
2013-01-18 06:56:00,16.4,8.6,30.38,NNW,342,0.0,0.0,71,0.00,,,0.00,Wunderground v.1.15,2013-01-18 11:56:00,
2013-01-18 07:01:00,16.3,8.5,30.38,NNW,342,0.0,0.0,71,0.00,,,0.00,Wunderground v.1.15,2013-01-18 12:01:00,
2013-01-18 07:06:00,16.1,8.3,30.38,NNW,342,0.0,0.0,71,0.00,,,0.00,Wunderground v.1.15,2013-01-18 12:06:00,
2013-01-18 07:11:00,15.9,8.5,30.38,NNW,342,0.0,0.0,72,0.00,,,0.00,Wunderground v.1.15,2013-01-18 12:11:00,
2013-01-18 07:16:00,15.7,8.6,30.38,NNW,342,0.0,0.0,73,0.00,,,0.00,Wunderground v.1.15,2013-01-18 12:16:00,
2013-01-18 07:21:00,15.4,8.3,30.38,NNW,342,0.0,0.0,73,0.00,,,0.00,Wunderground v.1.15,2013-01-18 12:21:00,
2013-01-18 07:26:00,15.3,8.5,30.39,NNW,342,0.0,0.0,74,0.00,,,0.00,Wunderground v.1.15,2013-01-18 12:26:00,
2013-01-18 07:31:00,15.1,8.6,30.39,NNW,342,0.0,0.0,75,0.00,,,0.00,Wunderground v.1.15,2013-01-18 12:31:00,
2013-01-18 07:36:00,14.9,8.7,30.39,NNW,342,0.0,0.0,76,0.00,,,0.00,Wunderground v.1.15,2013-01-18 12:36:00,
2013-01-18 07:41:00,14.9,8.7,30.39,NNW,342,0.0,0.0,76,0.00,,,0.00,Wunderground v.1.15,2013-01-18 12:41:00,
2013-01-18 07:46:00,14.9,8.7,30.39,NNW,342,0.0,0.0,76,0.00,,,0.00,Wunderground v.1.15,2013-01-18 12:46:00,
2013-01-18 07:51:00,14.8,8.9,30.39,NNW,342,0.0,0.0,77,0.00,,,0.00,Wunderground v.1.15,2013-01-18 12:51:00,
2013-01-18 07:56:00,14.7,8.8,30.38,NNW,342,0.0,0.0,77,0.00,,,0.00,Wunderground v.1.15,2013-01-18 12:56:00,
2013-01-18 08:01:00,14.6,8.7,30.38,NNW,342,0.0,0.0,77,0.00,,,0.00,Wunderground v.1.15,2013-01-18 13:01:00,
2013-01-18 08:06:00,14.5,8.6,30.38,NNW,342,0.0,0.0,77,0.00,,,0.00,Wunderground v.1.15,2013-01-18 13:06:00,
2013-01-18 08:11:00,14.4,8.5,30.38,NNW,342,0.0,0.0,77,0.00,,,0.00,Wunderground v.1.15,2013-01-18 13:11:00,
2013-01-18 08:16:00,14.4,8.5,30.38,NNW,342,0.0,0.0,77,0.00,,,0.00,Wunderground v.1.15,2013-01-18 13:16:00,
2013-01-18 08:21:00,14.5,8.9,30.38,NNW,342,0.0,0.0,78,0.00,,,0.00,Wunderground v.1.15,2013-01-18 13:21:00,
2013-01-18 08:26:00,14.8,9.5,30.38,NNW,342,0.0,0.0,79,0.00,,,0.00,Wunderground v.1.15,2013-01-18 13:26:00,
2013-01-18 08:32:00,15.3,10.0,30.38,NNW,342,0.0,1.0,79,0.00,,,0.00,Wunderground v.1.15,2013-01-18 13:32:00,
2013-01-18 08:37:00,15.7,10.1,30.38,NNW,342,0.0,1.0,78,0.00,,,0.00,Wunderground v.1.15,2013-01-18 13:37:00,
2013-01-18 08:42:00,16.2,10.5,30.37,NNW,342,0.0,0.0,78,0.00,,,0.00,Wunderground v.1.15,2013-01-18 13:42:00,
2013-01-18 08:46:00,16.6,10.6,30.37,NNW,342,0.0,0.0,77,0.00,,,0.00,Wunderground v.1.15,2013-01-18 13:46:00,
2013-01-18 08:51:00,17.0,11.0,30.37,NNW,342,0.0,0.0,77,0.00,,,0.00,Wunderground v.1.15,2013-01-18 13:51:00,
2013-01-18 08:57:00,17.3,11.3,30.38,NNW,342,0.0,0.0,77,0.00,,,0.00,Wunderground v.1.15,2013-01-18 13:57:00,
2013-01-18 09:02:00,17.7,11.4,30.38,NNW,342,0.0,1.0,76,0.00,,,0.00,Wunderground v.1.15,2013-01-18 14:02:00,
2013-01-18 09:07:00,17.9,11.3,30.38,NNW,342,0.0,2.0,75,0.00,,,0.00,Wunderground v.1.15,2013-01-18 14:07:00,
2013-01-18 09:12:00,18.2,11.3,30.38,NNW,341,0.0,1.0,74,0.00,,,0.00,Wunderground v.1.15,2013-01-18 14:12:00,
2013-01-18 09:17:00,18.4,11.2,30.38,NNW,344,0.0,1.0,73,0.00,,,0.00,Wunderground v.1.15,2013-01-18 14:17:00,
2013-01-18 09:22:00,18.5,11.0,30.38,NNW,340,0.0,0.0,72,0.00,,,0.00,Wunderground v.1.15,2013-01-18 14:22:00,
2013-01-18 09:27:00,18.8,11.3,30.38,NNW,340,0.0,1.0,72,0.00,,,0.00,Wunderground v.1.15,2013-01-18 14:27:00,
2013-01-18 09:32:00,18.9,11.0,30.38,NNW,340,0.0,1.0,71,0.00,,,0.00,Wunderground v.1.15,2013-01-18 14:32:00,
2013-01-18 09:37:00,19.1,11.6,30.38,NNW,341,0.0,2.0,72,0.00,,,0.00,Wunderground v.1.15,2013-01-18 14:37:00,
2013-01-18 09:42:00,19.4,11.8,30.37,NE,55,0.0,2.0,72,0.00,,,0.00,Wunderground v.1.15,2013-01-18 14:42:00,
2013-01-18 09:47:00,19.7,11.8,30.37,NE,49,0.0,2.0,71,0.00,,,0.00,Wunderground v.1.15,2013-01-18 14:47:00,
2013-01-18 09:52:00,19.9,12.0,30.37,West,267,0.0,1.0,71,0.00,,,0.00,Wunderground v.1.15,2013-01-18 14:52:00,
2013-01-18 09:57:00,20.1,12.2,30.37,SW,227,0.0,6.0,71,0.00,,,0.00,Wunderground v.1.15,2013-01-18 14:57:00,
2013-01-18 10:02:00,20.4,12.8,30.37,SW,234,0.0,1.0,72,0.00,,,0.00,Wunderground v.1.15,2013-01-18 15:02:00,
2013-01-18 10:07:00,20.7,13.1,30.36,WNW,288,0.0,5.0,72,0.00,,,0.00,Wunderground v.1.15,2013-01-18 15:07:00,
2013-01-18 10:12:00,21.0,13.4,30.36,West,267,0.0,1.0,72,0.00,,,0.00,Wunderground v.1.15,2013-01-18 15:12:00,
2013-01-18 10:17:00,21.2,13.6,30.36,WSW,250,0.0,4.0,72,0.00,,,0.00,Wunderground v.1.15,2013-01-18 15:17:00,
2013-01-18 10:22:00,21.4,13.8,30.36,North,5,0.0,2.0,72,0.00,,,0.00,Wunderground v.1.15,2013-01-18 15:22:00,
2013-01-18 10:27:00,21.6,14.3,30.36,SSE,154,0.0,4.0,73,0.00,,,0.00,Wunderground v.1.15,2013-01-18 15:27:00,
2013-01-18 10:32:00,21.9,14.6,30.36,SE,137,2.0,2.0,73,0.00,,,0.00,Wunderground v.1.15,2013-01-18 15:32:00,
2013-01-18 10:37:00,22.1,14.8,30.36,West,264,0.0,7.0,73,0.00,,,0.00,Wunderground v.1.15,2013-01-18 15:37:00,
2013-01-18 10:42:00,22.5,15.5,30.36,WNW,284,0.0,2.0,74,0.00,,,0.00,Wunderground v.1.15,2013-01-18 15:42:00,
2013-01-18 10:47:00,22.7,15.7,30.36,ENE,78,1.0,6.0,74,0.00,,,0.00,Wunderground v.1.15,2013-01-18 15:47:00,
2013-01-18 10:52:00,22.9,15.8,30.36,North,360,1.0,4.0,74,0.00,,,0.00,Wunderground v.1.15,2013-01-18 15:52:00,
2013-01-18 10:57:00,23.1,16.0,30.36,NNE,28,0.0,4.0,74,0.00,,,0.00,Wunderground v.1.15,2013-01-18 15:57:00,
2013-01-18 11:02:00,23.3,16.5,30.36,WSW,242,1.0,1.0,75,0.00,,,0.00,Wunderground v.1.15,2013-01-18 16:02:00,
2013-01-18 11:07:00,23.4,16.6,30.35,ENE,64,1.0,4.0,75,0.00,,,0.00,Wunderground v.1.15,2013-01-18 16:07:00,
2013-01-18 11:12:00,23.5,16.7,30.35,East,84,0.0,4.0,75,0.00,,,0.00,Wunderground v.1.15,2013-01-18 16:12:00,
2013-01-18 11:17:00,23.8,17.0,30.35,West,259,0.0,5.0,75,0.00,,,0.00,Wunderground v.1.15,2013-01-18 16:17:00,
2013-01-18 11:22:00,23.9,17.1,30.34,East,82,1.0,5.0,75,0.00,,,0.00,Wunderground v.1.15,2013-01-18 16:22:00,
2013-01-18 11:27:00,24.2,17.4,30.34,NW,309,2.0,5.0,75,0.00,,,0.00,Wunderground v.1.15,2013-01-18 16:27:00,
2013-01-18 11:32:00,24.5,17.7,30.34,WNW,290,2.0,6.0,75,0.00,,,0.00,Wunderground v.1.15,2013-01-18 16:32:00,
2013-01-18 11:37:00,24.8,18.0,30.33,SW,235,0.0,7.0,75,0.00,,,0.00,Wunderground v.1.15,2013-01-18 16:37:00,
2013-01-18 11:42:00,25.2,18.4,30.33,West,264,0.0,6.0,75,0.00,,,0.00,Wunderground v.1.15,2013-01-18 16:42:00,
2013-01-18 11:47:00,25.3,18.5,30.33,West,268,0.0,6.0,75,0.00,,,0.00,Wunderground v.1.15,2013-01-18 16:47:00,
2013-01-18 11:52:00,25.4,18.6,30.31,West,266,4.0,5.0,75,0.00,,,0.00,Wunderground v.1.15,2013-01-18 16:52:00,
2013-01-18 11:57:00,25.4,18.6,30.31,SW,221,1.0,5.0,75,0.00,,,0.00,Wunderground v.1.15,2013-01-18 16:57:00,
2013-01-18 12:02:00,25.5,18.7,30.31,NW,304,0.0,1.0,75,0.00,,,0.00,Wunderground v.1.15,2013-01-18 17:02:00,
2013-01-18 12:07:00,25.8,19.3,30.30,WNW,302,1.0,4.0,76,0.00,,,0.00,Wunderground v.1.15,2013-01-18 17:07:00,
2013-01-18 12:12:00,26.0,19.2,30.30,SW,233,0.0,5.0,75,0.00,,,0.00,Wunderground v.1.15,2013-01-18 17:12:00,
2013-01-18 12:17:00,26.4,19.5,30.30,WSW,256,0.0,5.0,75,0.00,,,0.00,Wunderground v.1.15,2013-01-18 17:17:00,
2013-01-18 12:22:00,26.8,19.9,30.28,East,99,1.0,7.0,75,0.00,,,0.00,Wunderground v.1.15,2013-01-18 17:22:00,
2013-01-18 12:27:00,27.1,19.6,30.28,WNW,288,4.0,8.0,73,0.00,,,0.00,Wunderground v.1.15,2013-01-18 17:27:00,
2013-01-18 12:32:00,27.4,19.6,30.28,WSW,252,2.0,7.0,72,0.00,,,0.00,Wunderground v.1.15,2013-01-18 17:32:00,
2013-01-18 12:37:00,27.6,19.1,30.26,WSW,248,4.0,11.0,70,0.00,,,0.00,Wunderground v.1.15,2013-01-18 17:37:00,
2013-01-18 12:42:00,27.8,18.6,30.26,West,265,0.0,10.0,68,0.00,,,0.00,Wunderground v.1.15,2013-01-18 17:42:00,
2013-01-18 12:47:00,28.1,18.9,30.26,NW,304,0.0,10.0,68,0.00,,,0.00,Wunderground v.1.15,2013-01-18 17:47:00,
2013-01-18 12:52:00,28.5,18.9,30.25,WNW,284,0.0,4.0,67,0.00,,,0.00,Wunderground v.1.15,2013-01-18 17:52:00,
2013-01-18 12:57:00,28.6,18.7,30.25,WNW,302,1.0,11.0,66,0.00,,,0.00,Wunderground v.1.15,2013-01-18 17:57:00,
2013-01-18 13:02:00,28.9,18.6,30.25,WSW,258,5.0,8.0,65,0.00,,,0.00,Wunderground v.1.15,2013-01-18 18:02:00,
2013-01-18 13:07:00,29.3,19.0,30.23,WSW,248,3.0,9.0,65,0.00,,,0.00,Wunderground v.1.15,2013-01-18 18:07:00,
2013-01-18 13:12:00,29.6,18.5,30.23,West,279,1.0,5.0,63,0.00,,,0.00,Wunderground v.1.15,2013-01-18 18:12:00,
2013-01-18 13:17:00,30.0,18.5,30.23,SSW,200,5.0,9.0,62,0.00,,,0.00,Wunderground v.1.15,2013-01-18 18:17:00,
2013-01-18 13:22:00,30.2,18.4,30.21,WSW,247,2.0,9.0,61,0.00,,,0.00,Wunderground v.1.15,2013-01-18 18:22:00,
2013-01-18 13:28:00,30.4,18.2,30.21,WSW,246,2.0,9.0,60,0.00,,,0.00,Wunderground v.1.15,2013-01-18 18:28:00,
2013-01-18 13:33:00,30.6,17.6,30.21,West,281,2.0,10.0,58,0.00,,,0.00,Wunderground v.1.15,2013-01-18 18:33:00,
2013-01-18 13:38:00,30.9,17.4,30.20,West,270,0.0,10.0,57,0.00,,,0.00,Wunderground v.1.15,2013-01-18 18:38:00,
2013-01-18 13:43:00,31.2,17.3,30.20,SSW,202,0.0,7.0,56,0.00,,,0.00,Wunderground v.1.15,2013-01-18 18:43:00,
2013-01-18 13:48:00,31.5,17.2,30.20,SSE,165,4.0,9.0,55,0.00,,,0.00,Wunderground v.1.15,2013-01-18 18:48:00,
2013-01-18 13:53:00,31.5,16.7,30.19,West,275,6.0,10.0,54,0.00,,,0.00,Wunderground v.1.15,2013-01-18 18:53:00,
2013-01-18 13:58:00,31.6,16.4,30.19,West,271,11.0,12.0,53,0.00,,,0.00,Wunderground v.1.15,2013-01-18 18:58:00,
2013-01-18 14:03:00,31.5,16.3,30.19,West,276,0.0,9.0,53,0.00,,,0.00,Wunderground v.1.15,2013-01-18 19:03:00,
2013-01-18 14:08:00,31.9,16.7,30.17,WNW,284,1.0,13.0,53,0.00,,,0.00,Wunderground v.1.15,2013-01-18 19:08:00,
2013-01-18 14:13:00,32.2,16.5,30.17,SW,232,1.0,10.0,52,0.00,,,0.00,Wunderground v.1.15,2013-01-18 19:13:00,
2013-01-18 14:18:00,32.3,16.6,30.17,NW,311,0.0,10.0,52,0.00,,,0.00,Wunderground v.1.15,2013-01-18 19:18:00,
2013-01-18 14:23:00,32.4,17.2,30.16,NW,311,0.0,8.0,53,0.00,,,0.00,Wunderground v.1.15,2013-01-18 19:23:00,
2013-01-18 14:28:00,32.5,16.8,30.16,WSW,241,2.0,13.0,52,0.00,,,0.00,Wunderground v.1.15,2013-01-18 19:28:00,
2013-01-18 14:33:00,32.4,16.7,30.16,West,276,7.0,12.0,52,0.00,,,0.00,Wunderground v.1.15,2013-01-18 19:33:00,
2013-01-18 14:38:00,32.4,17.2,30.15,SW,217,1.0,12.0,53,0.00,,,0.00,Wunderground v.1.15,2013-01-18 19:38:00,
2013-01-18 14:43:00,32.4,17.2,30.15,WNW,294,0.0,10.0,53,0.00,,,0.00,Wunderground v.1.15,2013-01-18 19:43:00,
2013-01-18 14:48:00,32.1,17.3,30.15,WNW,303,5.0,10.0,54,0.00,,,0.00,Wunderground v.1.15,2013-01-18 19:48:00,
2013-01-18 14:53:00,32.3,18.3,30.13,West,269,6.0,8.0,56,0.00,,,0.00,Wunderground v.1.15,2013-01-18 19:53:00,
2013-01-18 14:58:00,32.8,18.8,30.13,East,83,0.0,14.0,56,0.00,,,0.00,Wunderground v.1.15,2013-01-18 19:58:00,
2013-01-18 15:03:00,33.2,18.8,30.13,NW,310,2.0,12.0,55,0.00,,,0.00,Wunderground v.1.15,2013-01-18 20:03:00,
2013-01-18 15:08:00,33.4,18.5,30.12,NW,308,3.0,14.0,54,0.00,,,0.00,Wunderground v.1.15,2013-01-18 20:08:00,
2013-01-18 15:13:00,33.5,18.6,30.12,West,260,4.0,13.0,54,0.00,,,0.00,Wunderground v.1.15,2013-01-18 20:13:00,
2013-01-18 15:18:00,33.7,19.7,30.12,ENE,74,5.0,13.0,56,0.00,,,0.00,Wunderground v.1.15,2013-01-18 20:18:00,
2013-01-18 15:23:00,33.5,19.5,30.11,NW,314,4.0,12.0,56,0.00,,,0.00,Wunderground v.1.15,2013-01-18 20:23:00,
2013-01-18 15:28:00,33.4,19.4,30.11,WSW,254,6.0,12.0,56,0.00,,,0.00,Wunderground v.1.15,2013-01-18 20:28:00,
2013-01-18 15:34:00,33.4,19.8,30.11,WSW,249,0.0,12.0,57,0.00,,,0.00,Wunderground v.1.15,2013-01-18 20:34:00,
2013-01-18 15:39:00,33.4,19.8,30.11,SW,217,4.0,16.0,57,0.00,,,0.00,Wunderground v.1.15,2013-01-18 20:39:00,
2013-01-18 15:44:00,33.4,19.8,30.11,SW,236,2.0,15.0,57,0.00,,,0.00,Wunderground v.1.15,2013-01-18 20:44:00,
2013-01-18 15:49:00,33.5,19.9,30.11,WSW,257,8.0,15.0,57,0.00,,,0.00,Wunderground v.1.15,2013-01-18 20:49:00,
2013-01-18 15:54:00,33.5,19.9,30.09,WSW,257,5.0,12.0,57,0.00,,,0.00,Wunderground v.1.15,2013-01-18 20:54:00,
2013-01-18 15:59:00,33.5,19.9,30.09,SW,221,4.0,16.0,57,0.00,,,0.00,Wunderground v.1.15,2013-01-18 20:59:00,
2013-01-18 16:04:00,33.6,20.0,30.09,South,169,0.0,14.0,57,0.00,,,0.00,Wunderground v.1.15,2013-01-18 21:04:00,
2013-01-18 16:09:00,33.7,20.1,30.09,WNW,298,0.0,15.0,57,0.00,,,0.00,Wunderground v.1.15,2013-01-18 21:09:00,
2013-01-18 16:14:00,33.7,20.5,30.09,North,5,0.0,9.0,58,0.00,,,0.00,Wunderground v.1.15,2013-01-18 21:14:00,
2013-01-18 16:19:00,33.6,20.8,30.09,NNW,338,0.0,9.0,59,0.00,,,0.00,Wunderground v.1.15,2013-01-18 21:19:00,
2013-01-18 16:24:00,33.4,21.0,30.08,West,265,7.0,10.0,60,0.00,,,0.00,Wunderground v.1.15,2013-01-18 21:24:00,
2013-01-18 16:29:00,33.0,21.0,30.08,East,82,2.0,13.0,61,0.00,,,0.00,Wunderground v.1.15,2013-01-18 21:29:00,
2013-01-18 16:34:00,32.9,21.3,30.08,NNW,334,7.0,14.0,62,0.00,,,0.00,Wunderground v.1.15,2013-01-18 21:34:00,
2013-01-18 16:39:00,32.9,21.3,30.08,SSE,166,6.0,16.0,62,0.00,,,0.00,Wunderground v.1.15,2013-01-18 21:39:00,
2013-01-18 16:44:00,32.9,21.7,30.08,ENE,76,0.0,21.0,63,0.00,,,0.00,Wunderground v.1.15,2013-01-18 21:44:00,
2013-01-18 16:49:00,32.7,21.5,30.08,SSW,209,0.0,21.0,63,0.00,,,0.00,Wunderground v.1.15,2013-01-18 21:49:00,
2013-01-18 16:54:00,32.5,21.7,30.07,East,94,1.0,8.0,64,0.00,,,0.00,Wunderground v.1.15,2013-01-18 21:54:00,
2013-01-18 16:59:00,32.4,22.3,30.07,NW,323,1.0,18.0,66,0.00,,,0.00,Wunderground v.1.15,2013-01-18 21:59:00,
2013-01-18 17:04:00,32.4,22.3,30.07,ENE,68,1.0,12.0,66,0.00,,,0.00,Wunderground v.1.15,2013-01-18 22:04:00,
2013-01-18 17:09:00,32.4,22.3,30.06,WSW,245,0.0,12.0,66,0.00,,,0.00,Wunderground v.1.15,2013-01-18 22:09:00,
2013-01-18 17:14:00,32.4,22.7,30.06,WSW,237,2.0,13.0,67,0.00,,,0.00,Wunderground v.1.15,2013-01-18 22:14:00,
2013-01-18 17:19:00,32.4,22.7,30.06,East,82,0.0,13.0,67,0.00,,,0.00,Wunderground v.1.15,2013-01-18 22:19:00,
2013-01-18 17:24:00,32.4,22.7,30.05,West,267,6.0,8.0,67,0.00,,,0.00,Wunderground v.1.15,2013-01-18 22:24:00,
2013-01-18 17:29:00,32.4,22.7,30.05,SW,224,5.0,12.0,67,0.00,,,0.00,Wunderground v.1.15,2013-01-18 22:29:00,
2013-01-18 17:34:00,32.5,22.8,30.05,WNW,294,4.0,13.0,67,0.00,,,0.00,Wunderground v.1.15,2013-01-18 22:34:00,
2013-01-18 17:39:00,32.6,22.5,30.04,NW,322,4.0,13.0,66,0.00,,,0.00,Wunderground v.1.15,2013-01-18 22:39:00,
2013-01-18 17:44:00,32.6,22.5,30.04,SSE,166,0.0,9.0,66,0.00,,,0.00,Wunderground v.1.15,2013-01-18 22:44:00,
2013-01-18 17:49:00,32.6,22.5,30.04,ESE,113,0.0,14.0,66,0.00,,,0.00,Wunderground v.1.15,2013-01-18 22:49:00,
2013-01-18 17:54:00,32.7,22.6,30.03,WSW,242,1.0,8.0,66,0.00,,,0.00,Wunderground v.1.15,2013-01-18 22:54:00,
2013-01-18 17:59:00,32.8,22.7,30.03,West,263,11.0,11.0,66,0.00,,,0.00,Wunderground v.1.15,2013-01-18 22:59:00,
2013-01-18 18:04:00,32.8,22.7,30.03,NE,40,1.0,14.0,66,0.00,,,0.00,Wunderground v.1.15,2013-01-18 23:04:00,
2013-01-18 18:09:00,32.9,22.8,30.03,NE,56,2.0,14.0,66,0.00,,,0.00,Wunderground v.1.15,2013-01-18 23:09:00,
2013-01-18 18:14:00,32.9,22.8,30.03,West,274,2.0,16.0,66,0.00,,,0.00,Wunderground v.1.15,2013-01-18 23:14:00,
2013-01-18 18:19:00,33.0,22.9,30.03,South,188,7.0,16.0,66,0.00,,,0.00,Wunderground v.1.15,2013-01-18 23:19:00,
2013-01-18 18:24:00,33.0,22.5,30.02,SE,132,1.0,14.0,65,0.00,,,0.00,Wunderground v.1.15,2013-01-18 23:24:00,
2013-01-18 18:29:00,32.9,22.4,30.02,East,88,5.0,14.0,65,0.00,,,0.00,Wunderground v.1.15,2013-01-18 23:29:00,
2013-01-18 18:34:00,32.8,22.3,30.02,SW,227,7.0,11.0,65,0.00,,,0.00,Wunderground v.1.15,2013-01-18 23:34:00,
2013-01-18 18:39:00,32.8,22.3,30.01,East,98,6.0,19.0,65,0.00,,,0.00,Wunderground v.1.15,2013-01-18 23:39:00,
2013-01-18 18:44:00,32.8,22.3,30.01,SSE,161,2.0,13.0,65,0.00,,,0.00,Wunderground v.1.15,2013-01-18 23:44:00,
2013-01-18 18:49:00,32.8,22.7,30.01,SE,126,5.0,13.0,66,0.00,,,0.00,Wunderground v.1.15,2013-01-18 23:49:00,
2013-01-18 18:54:00,32.8,22.7,30.00,NW,314,8.0,14.0,66,0.00,,,0.00,Wunderground v.1.15,2013-01-18 23:54:00,
2013-01-18 18:59:00,32.9,22.4,30.00,WNW,303,8.0,18.0,65,0.00,,,0.00,Wunderground v.1.15,2013-01-18 23:59:00,
2013-01-18 19:04:00,33.0,22.5,30.00,North,355,6.0,11.0,65,0.00,,,0.00,Wunderground v.1.15,2013-01-19 00:04:00,
2013-01-18 19:09:00,33.0,22.1,30.00,WSW,252,5.0,12.0,64,0.00,,,0.00,Wunderground v.1.15,2013-01-19 00:09:00,
2013-01-18 19:14:00,33.1,22.2,30.00,ENE,61,0.0,15.0,64,0.00,,,0.00,Wunderground v.1.15,2013-01-19 00:14:00,
2013-01-18 19:19:00,33.2,22.0,30.00,ENE,71,1.0,15.0,63,0.00,,,0.00,Wunderground v.1.15,2013-01-19 00:19:00,
2013-01-18 19:24:00,33.3,22.1,29.99,West,268,9.0,14.0,63,0.00,,,0.00,Wunderground v.1.15,2013-01-19 00:24:00,
2013-01-18 19:29:00,33.4,21.8,29.99,SW,223,10.0,14.0,62,0.00,,,0.00,Wunderground v.1.15,2013-01-19 00:29:00,
2013-01-18 19:34:00,33.6,21.6,29.99,WSW,242,9.0,11.0,61,0.00,,,0.00,Wunderground v.1.15,2013-01-19 00:34:00,
2013-01-18 19:39:00,33.9,21.5,29.99,WNW,300,0.0,19.0,60,0.00,,,0.00,Wunderground v.1.15,2013-01-19 00:39:00,
2013-01-18 19:44:00,34.1,21.3,29.99,NNE,16,8.0,14.0,59,0.00,,,0.00,Wunderground v.1.15,2013-01-19 00:44:00,
2013-01-18 19:49:00,34.2,21.4,29.99,SW,228,1.0,14.0,59,0.00,,,0.00,Wunderground v.1.15,2013-01-19 00:49:00,
2013-01-18 19:54:00,34.2,20.9,29.97,NNE,24,14.0,20.0,58,0.00,,,0.00,Wunderground v.1.15,2013-01-19 00:54:00,
2013-01-18 19:59:00,34.2,20.9,29.97,WSW,252,3.0,20.0,58,0.00,,,0.00,Wunderground v.1.15,2013-01-19 00:59:00,
2013-01-18 20:04:00,34.2,20.9,29.97,WSW,238,0.0,19.0,58,0.00,,,0.00,Wunderground v.1.15,2013-01-19 01:04:00,
2013-01-18 20:09:00,34.3,21.0,29.97,SW,224,2.0,20.0,58,0.00,,,0.00,Wunderground v.1.15,2013-01-19 01:09:00,
2013-01-18 20:14:00,34.3,21.4,29.97,WNW,286,3.0,15.0,59,0.00,,,0.00,Wunderground v.1.15,2013-01-19 01:14:00,
2013-01-18 20:19:00,34.2,21.4,29.97,NNW,338,9.0,15.0,59,0.00,,,0.00,Wunderground v.1.15,2013-01-19 01:19:00,
2013-01-18 20:25:00,34.2,21.4,29.97,North,355,5.0,13.0,59,0.00,,,0.00,Wunderground v.1.15,2013-01-19 01:25:00,
2013-01-18 20:30:00,34.3,21.4,29.97,WNW,300,5.0,20.0,59,0.00,,,0.00,Wunderground v.1.15,2013-01-19 01:30:00,
2013-01-18 20:35:00,34.2,21.4,29.97,SE,130,1.0,14.0,59,0.00,,,0.00,Wunderground v.1.15,2013-01-19 01:35:00,
2013-01-18 20:40:00,34.1,21.7,29.98,WNW,300,1.0,14.0,60,0.00,,,0.00,Wunderground v.1.15,2013-01-19 01:40:00,
2013-01-18 20:45:00,34.0,21.6,29.98,WSW,248,4.0,11.0,60,0.00,,,0.00,Wunderground v.1.15,2013-01-19 01:45:00,
2013-01-18 20:50:00,33.9,21.9,29.98,NW,311,6.0,11.0,61,0.00,,,0.00,Wunderground v.1.15,2013-01-19 01:50:00,
2013-01-18 20:55:00,33.9,21.9,29.98,ENE,59,3.0,20.0,61,0.00,,,0.00,Wunderground v.1.15,2013-01-19 01:55:00,
2013-01-18 21:00:00,33.9,21.9,29.98,NW,317,5.0,20.0,61,0.00,,,0.00,Wunderground v.1.15,2013-01-19 02:00:00,
2013-01-18 21:05:00,33.9,22.2,29.98,WNW,289,2.0,20.0,62,0.00,,,0.00,Wunderground v.1.15,2013-01-19 02:05:00,
2013-01-18 21:09:00,33.9,22.2,29.98,WNW,300,4.0,20.0,62,0.00,,,0.00,Wunderground v.1.15,2013-01-19 02:09:00,
2013-01-18 21:14:00,33.8,22.1,29.98,West,274,2.0,12.0,62,0.00,,,0.00,Wunderground v.1.15,2013-01-19 02:14:00,
2013-01-18 21:19:00,33.6,22.3,29.98,West,275,1.0,12.0,63,0.00,,,0.00,Wunderground v.1.15,2013-01-19 02:19:00,
2013-01-18 21:25:00,33.5,22.2,29.97,NW,311,6.0,11.0,63,0.00,,,0.00,Wunderground v.1.15,2013-01-19 02:25:00,
2013-01-18 21:30:00,33.5,22.2,29.97,NW,319,5.0,14.0,63,0.00,,,0.00,Wunderground v.1.15,2013-01-19 02:30:00,
2013-01-18 21:35:00,33.5,22.6,29.97,WNW,302,7.0,12.0,64,0.00,,,0.00,Wunderground v.1.15,2013-01-19 02:35:00,
2013-01-18 21:40:00,33.5,22.6,29.96,NW,315,4.0,12.0,64,0.00,,,0.00,Wunderground v.1.15,2013-01-19 02:40:00,
2013-01-18 21:45:00,33.5,22.6,29.96,NNW,329,1.0,16.0,64,0.00,,,0.00,Wunderground v.1.15,2013-01-19 02:45:00,
2013-01-18 21:50:00,33.4,22.5,29.96,WNW,302,8.0,16.0,64,0.00,,,0.00,Wunderground v.1.15,2013-01-19 02:50:00,
2013-01-18 21:55:00,33.5,22.6,29.96,WNW,290,0.0,11.0,64,0.00,,,0.00,Wunderground v.1.15,2013-01-19 02:55:00,
2013-01-18 22:00:00,33.5,22.6,29.96,WSW,246,0.0,12.0,64,0.00,,,0.00,Wunderground v.1.15,2013-01-19 03:00:00,
2013-01-18 22:05:00,33.5,22.6,29.96,WNW,295,6.0,11.0,64,0.00,,,0.00,Wunderground v.1.15,2013-01-19 03:05:00,
2013-01-18 22:10:00,33.5,22.6,29.96,WNW,303,3.0,11.0,64,0.00,,,0.00,Wunderground v.1.15,2013-01-19 03:10:00,
2013-01-18 22:15:00,33.4,22.9,29.96,NNW,330,4.0,5.0,65,0.00,,,0.00,Wunderground v.1.15,2013-01-19 03:15:00,
2013-01-18 22:20:00,33.4,22.9,29.96,WNW,292,0.0,6.0,65,0.00,,,0.00,Wunderground v.1.15,2013-01-19 03:20:00,
2013-01-18 22:25:00,33.4,22.9,29.95,WNW,286,6.0,11.0,65,0.00,,,0.00,Wunderground v.1.15,2013-01-19 03:25:00,
2013-01-18 22:30:00,33.6,23.1,29.95,NW,306,4.0,4.0,65,0.00,,,0.00,Wunderground v.1.15,2013-01-19 03:30:00,
2013-01-18 22:35:00,33.6,23.1,29.95,West,269,0.0,7.0,65,0.00,,,0.00,Wunderground v.1.15,2013-01-19 03:35:00,
2013-01-18 22:40:00,33.5,23.0,29.94,WSW,245,1.0,4.0,65,0.00,,,0.00,Wunderground v.1.15,2013-01-19 03:40:00,
2013-01-18 22:45:00,33.4,22.9,29.94,NW,313,0.0,9.0,65,0.00,,,0.00,Wunderground v.1.15,2013-01-19 03:45:00,
2013-01-18 22:50:00,33.4,22.9,29.94,SSE,159,2.0,2.0,65,0.00,,,0.00,Wunderground v.1.15,2013-01-19 03:50:00,
2013-01-18 22:55:00,33.5,23.0,29.93,WNW,294,0.0,7.0,65,0.00,,,0.00,Wunderground v.1.15,2013-01-19 03:55:00,
2013-01-18 23:00:00,33.5,23.0,29.93,WNW,303,2.0,5.0,65,0.00,,,0.00,Wunderground v.1.15,2013-01-19 04:00:00,
2013-01-18 23:05:00,33.7,23.2,29.93,NW,314,2.0,11.0,65,0.00,,,0.00,Wunderground v.1.15,2013-01-19 04:05:00,
2013-01-18 23:10:00,33.8,23.3,29.93,NNW,342,4.0,4.0,65,0.00,,,0.00,Wunderground v.1.15,2013-01-19 04:10:00,
2013-01-18 23:15:00,33.9,23.4,29.93,NW,318,7.0,9.0,65,0.00,,,0.00,Wunderground v.1.15,2013-01-19 04:15:00,
2013-01-18 23:20:00,34.0,23.5,29.93,WSW,254,0.0,3.0,65,0.00,,,0.00,Wunderground v.1.15,2013-01-19 04:20:00,
2013-01-18 23:25:00,34.0,23.5,29.92,WNW,292,0.0,11.0,65,0.00,,,0.00,Wunderground v.1.15,2013-01-19 04:25:00,
2013-01-18 23:30:00,34.0,23.5,29.92,SSE,158,0.0,2.0,65,0.00,,,0.00,Wunderground v.1.15,2013-01-19 04:30:00,
2013-01-18 23:35:00,34.0,23.5,29.92,WSW,257,3.0,11.0,65,0.00,,,0.00,Wunderground v.1.15,2013-01-19 04:35:00,
2013-01-18 23:40:00,34.1,23.6,29.91,NNW,329,1.0,9.0,65,0.00,,,0.00,Wunderground v.1.15,2013-01-19 04:40:00,
2013-01-18 23:45:00,34.4,23.8,29.91,NW,310,1.0,12.0,65,0.00,,,0.00,Wunderground v.1.15,2013-01-19 04:45:00,
2013-01-18 23:50:00,34.6,23.7,29.91,WNW,296,0.0,5.0,64,0.00,,,0.00,Wunderground v.1.15,2013-01-19 04:50:00,
2013-01-18 23:55:00,34.7,23.8,29.91,NE,40,0.0,10.0,64,0.00,,,0.00,Wunderground v.1.15,2013-01-19 04:55:00,